Weather past 2 weeks in Adamstown, Pitcairn Islands

Now
66 °F

Mild.


Feels Like: 66 °F
Forecast: 69 / 72 °F
Wind: 9 mph from Southwest

Location: Rikitea

Current Time: Jul 5, 2015 at 9:41:25 PM

Latest Report: Jul 5, 2015 at 8:00 PM


Visibility: N/A

Pressure: 30.04 "Hg

Humidity: 64%

Dew point: 54 °F

Location of AdamstownLocation

Historic Weather in Adamstown — Graph

°F

Adamstown temperature yesterday

Maximum temperature yesterday: 69 °F (at 12:00 AM)
Minimum temperature yesterday: 64 °F (at 6:00 AM)
Average temperature yesterday: 67 °F

Past Weeks' High & Low Weather Summary

 TemperatureHumidityPressure
High79 °F (Jun 21, 2:00 PM)100% (Jun 21, 5:00 AM)30.11 "Hg (Jun 21, 5:00 AM)
Low64 °F (Jul 4, 6:00 AM)50% (Jul 5, 12:00 AM)29.79 "Hg (Jul 2, 4:00 PM)
Average71 °F88%29.99 "Hg
* Reported Jun 20 8:00 PM — Jul 5 8:00 PM, Adamstown, Weather by CustomWeather, © 2015

Note: Actual official high and low records may vary slightly from our data, if they occured in-between our weather recording intervals... More about our weather records

Advertising

Adamstown weather history for previous 24 hours

 ConditionsComfort  
Time TempWeatherWind HumidityBarometerVisibility
8:00 PM
Sun, Jul 5
66 °FMild.9 mph64%30.04 "HgN/A
7:00 PM65 °FMild.8 mph76%30.02 "HgN/A
6:00 PM65 °FPassing clouds.9 mph70%30.01 "Hg25 mi
5:00 PM66 °FPassing clouds.12 mph75%29.99 "Hg25 mi
4:00 PM67 °FScattered clouds.12 mph61%30.00 "Hg25 mi
3:00 PM68 °FMild.12 mph62%29.99 "HgN/A
2:00 PM68 °FMild.14 mph63%30.00 "HgN/A
1:00 PM70 °FMild.12 mph57%30.01 "HgN/A
12:00 PM69 °FPassing clouds.12 mph52%30.03 "Hg25 mi
11:00 AM67 °FPassing clouds.8 mph56%30.04 "Hg19 mi
10:00 AM68 °FPassing clouds.10 mph51%30.04 "Hg19 mi
9:00 AM67 °FMild.9 mph65%30.03 "HgN/A
8:00 AM65 °FPartly sunny.5 mph53%30.02 "Hg19 mi
7:00 AM65 °FScattered clouds.9 mph59%29.99 "Hg19 mi
6:00 AM65 °FMild.8 mph64%29.98 "HgN/A
5:00 AM65 °FMild.9 mph63%29.98 "HgN/A
4:00 AM65 °FMild.9 mph58%30.00 "HgN/A
3:00 AM65 °FMild.9 mph54%30.01 "HgN/A
2:00 AM66 °FMild.9 mph59%30.01 "HgN/A
1:00 AM65 °FMild.10 mph51%30.02 "HgN/A
12:00 AM65 °FMild.9 mph50%30.02 "HgN/A
11:00 PM
Sat, Jul 4
66 °FMild.12 mph51%30.02 "HgN/A
10:00 PM65 °FMild.10 mph52%30.01 "HgN/A
9:00 PM65 °FMild.10 mph55%30.00 "HgN/A
Weather by CustomWeather, © 2015

See weather overviewHow to use our weather pages